This is the latest recevied weather packets stored in our database for station/object WA9SDJ-13. If no packets are shown the sender has not sent any weather packets the latest 10 day(s).
| Time | Temp. | Humidity | Pressure | Rain* | Wind** | Luminosity | Snow |
|---|---|---|---|---|---|---|---|
| 1778181156 | 17.78° C | 41% | 1014.2 hPa | 0 mm | - | 944 W/m² | - |
| 1778181096 | 17.22° C | 40% | 1014.2 hPa | 0 mm | - | 923 W/m² | - |
| 1778181036 | 17.78° C | 40% | 1014.3 hPa | 0 mm | - | 944 W/m² | - |
| 1778180976 | 17.78° C | 42% | 1014.3 hPa | 0 mm | - | 939 W/m² | - |
| 1778180916 | 17.78° C | 45% | 1014.3 hPa | 0 mm | - | 958 W/m² | - |
| 1778180856 | 17.78° C | 47% | 1014.2 hPa | 0 mm | - | 948 W/m² | - |
| 1778180796 | 17.78° C | 48% | 1014.3 hPa | 0 mm | - | 951 W/m² | - |
| 1778180736 | 17.78° C | 46% | 1014.3 hPa | 0 mm | - | 960 W/m² | - |
| 1778180677 | 17.78° C | 47% | 1014.3 hPa | 0 mm | - | 445 W/m² | - |
| 1778180616 | 17.78° C | 46% | 1014.3 hPa | 0 mm | - | 965 W/m² | - |
| 1778180556 | 17.78° C | 41% | 1014.3 hPa | 0 mm | - | 964 W/m² | - |
| 1778180496 | 17.78° C | 46% | 1014.3 hPa | 0 mm | - | 971 W/m² | - |
| 1778180436 | 17.78° C | 45% | 1014.2 hPa | 0 mm | - | 974 W/m² | - |
| 1778180376 | 17.78° C | 43% | 1014.3 hPa | 0 mm | - | 974 W/m² | - |
| 1778180316 | 17.78° C | 46% | 1014.3 hPa | 0 mm | - | 974 W/m² | - |
| 1778180256 | 17.22° C | 48% | 1014.4 hPa | 0 mm | - | 969 W/m² | - |
| 1778180197 | 17.22° C | 45% | 1014.4 hPa | 0 mm | - | 978 W/m² | - |
| 1778180136 | 17.22° C | 46% | 1014.4 hPa | 0 mm | - | 985 W/m² | - |
| 1778180076 | 17.22° C | 47% | 1014.4 hPa | 0 mm | - | 992 W/m² | - |
| 1778180016 | 16.67° C | 43% | 1014.4 hPa | 0 mm | - | 990 W/m² | - |
| 1778179956 | 16.67° C | 44% | 1014.4 hPa | 0 mm | - | 1025 W/m² | - |
| 1778179896 | 16.67° C | 43% | 1014.4 hPa | 0 mm | - | 1037 W/m² | - |
| 1778179836 | 16.67° C | 44% | 1014.4 hPa | 0 mm | - | 1055 W/m² | - |
| 1778179776 | 16.67° C | 41% | 1014.4 hPa | 0 mm | - | 1029 W/m² | - |
| 1778179716 | 16.67° C | 41% | 1014.4 hPa | 0 mm | - | 186 W/m² | - |
* Rain latest hour (hover to see other rain measurements)
** Current wind speed in m/s (hover to see current wind gust speed)